Location: Leeds
(37.2390°N, 113.3580°W)
Time: 18:59:51
(UTC-06:00)

Daily predictions for brighter satellites

Satellite Brightness Start Highest point End
(mag) Time Altitude Azimuth Time Altitude Azimuth Time Altitude Azimuth
ERS-1 Rocket 3.8 21:04:27 10° SE 21:08:54 33° ENE 21:13:21 10° N
ATLAS 5 CENTAUR R/B 2.6 21:03:02 10° NNW 21:09:06 69° NE 21:15:32 10° SE
Cosmos 407 Rocket 4.5 21:05:11 10° N 21:09:52 31° ENE 21:14:33 10° SE
Cosmos 1452 Rocket 4.2 21:14:01 10° SSE 21:18:39 33° E 21:23:19 10° NE
Cosmos 1408 4.3 21:18:50 10° SE 21:21:04 16° E 21:23:18 10° NE
COSMOS 2406 3.3 21:18:26 10° NNW 21:24:13 77° ENE 21:29:54 10° SSE
Cosmos 1190 Rocket 4.3 21:19:38 10° N 21:24:43 52° ENE 21:29:46 10° SE
Cosmos 1825 3.7 21:23:04 10° SE 21:25:48 19° E 21:28:33 10° NE
YAOGAN 11 4.3 21:22:11 10° SSE 21:26:36 57° ENE 21:31:06 10° N
ALOS 2.8 21:23:18 10° S 21:27:55 62° W 21:32:33 10° NNW
Cosmos 2278 Rocket 2.8 21:25:14 10° SSE 21:30:18 35° ESE 21:35:23 10° NE
Cosmos 2184 Rocket 4.0 21:26:38 10° S 21:32:47 88° E 21:39:00 10° N
Cosmos 1844 Rocket 2.7 21:27:25 10° SSW 21:33:04 81° ESE 21:38:44 10° NNE
Cosmos 1184 Rocket 4.5 21:32:42 13° ESE 21:34:15 17° E 21:36:31 10° NE
Cosmos 1844 3.8 21:29:28 10° S 21:35:06 61° ESE 21:40:50 10° NNE
H-2A R/B 2.9 21:32:34 11° SE 21:36:13 34° ENE 21:40:03 10° N
FENGYUN 3A 4.5 21:36:09 10° S 21:41:23 52° W 21:46:39 10° NNW
CZ-3C R/B 4.0 21:07:47 10° WSW 21:44:13 30° S 21:50:58 14° SE
Meteor 2-10 Rocket 4.1 21:39:15 10° NNW 21:45:00 67° W 21:50:34 10° S
ISS -3.5 21:43:06 10° SW 21:46:20 83° SE 21:49:36 10° NE
USA 186 3.6 21:44:17 10° SSW 21:47:03 30° W 21:49:59 10° NNW
CENTAUR R/B 3.7 21:43:22 10° NW 21:51:08 57° WSW 21:59:13 10° SSE
Cosmos 2082 Rocket 4.0 21:48:03 10° NNE 21:51:35 16° NE 21:54:52 11° E
Meteor 1-10 Rocket 4.4 21:48:11 10° NNW 21:54:00 78° W 21:59:40 10° S
Cosmos 1862 3.5 21:50:25 10° S 21:54:23 54° E 21:58:22 10° NNE
Cosmos 676 Rocket 4.1 21:50:15 10° N 21:55:24 59° ENE 21:59:13 18° SE
Cosmos 1238 Rocket 3.3 21:53:00 10° NNE 21:56:06 34° E 21:57:47 22° SE
Cosmos 1174 3.5 21:54:25 10° NNW 21:57:29 46° ENE 21:58:43 27° ESE
SPOT 5 3.5 21:55:02 17° SE 21:58:50 48° ENE 22:03:58 10° N
Cosmos 1954 Rocket 4.3 21:54:58 10° N 22:00:02 50° ENE 22:03:20 21° SE
COS B Rocket 3.3 21:56:35 10° N 22:00:31 54° E 22:02:44 21° SSE
EO 1 Delta rocket 4.1 21:56:37 10° NNE 22:02:35 71° E 22:07:27 10° S
Okean 2 Rocket 3.5 22:02:42 20° SSE 22:05:16 40° E 22:09:24 10° NNE
Cosmos 2297 4.3 22:00:51 12° SSE 22:05:28 34° ESE 22:10:34 10° NE
Cosmos 1674 Rocket 4.0 22:01:08 10° NNW 22:05:32 61° W 22:09:53 10° S
OAO 3 Rocket 3.9 22:01:43 10° SW 22:06:09 33° SSE 22:08:12 24° ESE
SL-27 R/B 3.7 22:03:13 10° NNW 22:06:40 40° WSW 22:09:43 12° S
Okean 3 3.8 22:02:51 10° N 22:06:59 46° E 22:09:00 26° SE
Cosmos 1606 2.7 22:06:21 10° N 22:10:19 90° SSW 22:12:54 20° S
Sich 1 Rocket 4.4 22:11:00 10° SSW 22:15:28 53° W 22:19:58 10° N
Cosmos 1782 Rocket 3.5 22:15:08 16° S 22:18:36 73° E 22:23:05 10° N
Meteor 1-27 Rocket 3.8 22:16:06 10° NNW 22:21:39 76° W 22:26:03 16° S
Cosmos 1782 4.3 22:18:30 10° NNW 22:22:11 35° W 22:25:52 10° SSW
Nadezhda 3 Rocket 4.1 22:16:18 10° N 22:22:41 86° W 22:27:59 16° S
GPS 2-05 Rocket1 2.9 22:19:14 10° WSW 22:22:54 64° S 22:23:47 45° ESE
COSMOS 2487 2.4 22:21:48 10° NNW 22:25:25 74° ENE 22:26:19 47° SE
Meteor 2-13 Rocket 4.4 22:23:53 15° S 22:29:01 72° E 22:35:10 10° NNE
Envisat 3.5 22:26:19 16° S 22:30:17 59° W 22:35:18 10° NNW
MetOp-B 4.1 22:27:42 28° SSE 22:30:38 79° ENE 22:36:00 10° N
Cosmos 1939 Rocket 4.1 22:29:40 15° SSW 22:32:30 36° W 22:36:08 10° NNW
APEX 3.2 22:32:03 27° SSW 22:34:02 76° ESE 22:38:50 10° NNE
SEDSat Delta rocket 4.4 22:32:16 10° SW 22:34:25 21° SSW 22:34:25 21° SSW
Cosmos 1975 Rocket 2.9 22:31:40 10° N 22:36:02 87° E 22:37:35 39° S
DNEPR-1 R/B 3.9 22:36:27 10° NNW 22:41:40 60° NE 22:42:52 44° ESE
Cosmos 1420 Rocket 4.1 22:36:47 10° SSW 22:42:01 78° WNW 22:47:16 10° NNE
Atlas Centaur 2 3.1 22:42:05 10° WSW 22:43:28 16° SW 22:43:28 16° SW
Cosmos 2341 Rocket 4.4 22:39:03 10° SSW 22:45:16 62° W 22:51:30 10° N
OAO 1 Rocket 4.4 22:41:40 10° WSW 22:46:52 57° SSE 22:48:06 45° ESE
Cosmos 614 Rocket 4.1 22:42:18 10° N 22:47:19 58° ENE 22:48:29 46° ESE
ARGOS 3.1 22:46:44 42° SE 22:48:32 69° ENE 22:53:51 10° N
Cosmos 1536 Rocket 4.4 22:44:43 10° NNE 22:48:51 35° ENE 22:48:51 35° ENE
CZ-4 R/B 3.7 22:48:36 10° NNE 22:53:14 66° ESE 22:53:59 56° SSE
ATLAS 5 CENTAUR R/B 4.4 22:49:05 10° WNW 22:53:24 20° WSW 22:57:52 10° SSW
YAOGAN 6 2.9 22:53:07 52° SW 22:53:29 55° W 22:56:57 10° NNW
H-2A R/B 2.7 22:53:53 37° E 22:54:50 40° ENE 22:59:47 10° N
CZ-4 SHROUD 4.3 22:55:59 39° W 22:55:59 39° W 22:58:54 10° NNW
Cosmos 1140 Rocket 3.6 22:52:26 10° NNW 22:57:34 71° WSW 22:59:09 44° S
Cosmos 1242 Rocket 2.9 22:55:04 10° NNW 22:58:41 59° W 22:58:57 57° WSW
SL-8 Rocket 4.0 22:54:45 23° S 22:58:49 83° W 23:05:07 10° N
USA 245 3.2 22:59:05 67° WNW 22:59:05 67° WNW 23:02:45 10° NNW
Cosmos 1825 4.5 22:58:13 10° SW 23:01:16 22° WNW 23:04:20 10° NNW
Timation 2 Rocket 3.8 22:56:27 10° NNW 23:02:28 84° WSW 23:04:20 46° SSE
Meteor 1-25 Rocket 4.3 23:05:46 52° SE 23:06:56 63° E 23:12:42 10° NNE
CZ-4B R/B 3.7 23:03:53 10° N 23:08:46 63° WNW 23:11:04 30° SW
SPOT 1/Viking Rocket 3.8 23:08:41 43° SSW 23:10:15 64° W 23:15:26 10° NNW
Cosmos 2151 Rocket 3.6 23:10:45 70° SSW 23:11:14 82° W 23:15:47 10° N
H-2A R/B 4.4 23:09:43 12° SW 23:12:16 18° W 23:15:12 10° NW
USA 234 3.2 23:07:10 10° NE 23:13:37 60° SE 23:17:45 23° SSW
Cosmos 2278 Rocket 4.0 23:09:24 10° WSW 23:14:21 30° WNW 23:19:20 10° N
Cosmos 1833 Rocket 2.8 23:09:07 10° NNW 23:14:40 59° ENE 23:15:24 54° E
Landsat 7 3.7 23:15:00 73° E 23:15:11 74° ENE 23:19:56 10° N
IGS 5A 4.2 23:23:40 43° NNE 23:23:40 43° NNE 23:26:51 10° N
ISS -0.1 23:21:10 10° WNW 23:23:08 15° NNW 23:25:07 10° NNE
Meteor 1-18 Rocket 4.2 23:19:19 10° N 23:25:16 86° E 23:26:13 65° SSE
Cosmos 1812 3.9 23:24:08 10° N 23:26:39 37° NNE 23:26:39 37° NNE
Cosmos 1300 Rocket 4.4 23:32:04 44° NNE 23:32:04 44° NNE 23:35:15 10° NNE
Terra 1.9 23:31:14 70° NE 23:31:14 70° NE 23:35:39 10° N
SL-08 RB Rocket 4.4 23:33:35 45° WSW 23:33:49 46° W 23:38:17 10° NNW
Okean 1 Rocket 4.0 23:35:20 40° NE 23:35:20 40° NE 23:38:22 10° NNE
Cosmos 2082 Rocket 2.2 23:30:35 10° NNW 23:36:15 71° WSW 23:36:43 67° SW
Spot 4 4.1 23:42:42 64° NNE 23:42:42 64° NNE 23:46:57 10° N
Lacrosse 5 3.5 23:56:43 24° NE 23:56:43 24° NE 23:58:45 10° NE
Meteor 1-11 Rocket 4.0 23:54:40 58° ENE 23:54:40 58° ENE 23:59:42 10° NNE
